Home > Time Zones > World Clock > Weather > U.S.A. > Gary > Past weeks

Flag Weather past 2 weeks in Gary, Indiana, U.S.A.

Now
19 °F

Passing clouds.


Feels Like: 19 °F
Forecast: 16 / 35 °F
Wind: No wind

Location: Lansing Municipal Airport

Current Time: Nov 28, 2014 at 12:00:19 AM

Latest Report: Nov 27, 2014 at 11:15 PM


Visibility: 10 mi

Pressure: 30.39 "Hg

Humidity: 72%

Dew point: 11 °F

Location of GaryLocation

Historic Weather in Gary — Graph

°F

Gary temperature yesterday

Maximum temperature yesterday: 29 °F (at 12:55 AM)
Minimum temperature yesterday: 19 °F (at 10:15 PM)
Average temperature yesterday: 26 °F

Past Weeks' High & Low Weather Summary

 TemperatureHumidityPressure
High51 °F (Nov 22, 8:55 PM)99% (Nov 23, 9:55 PM)30.48 "Hg (Nov 23, 9:55 PM)
Low8 °F (Nov 21, 7:15 AM)29% (Nov 21, 2:55 PM)29.09 "Hg (Nov 24, 4:55 AM)
Average27 °F72%30.07 "Hg
* Reported Nov 12 10:15 PM — Nov 27 10:55 PM, Gary, Weather by CustomWeather, © 2014

Note: Actual official high and low records may vary slightly from our data, if they occured in-between our weather recording intervals... More about our weather records

Advertising

Gary weather history for previous 24 hours

 ConditionsComfort  
Time TempWeatherWind HumidityBarometerVisibility
10:55 PM
Nov 27
19 °FPassing clouds.3 mph71%30.41 "Hg10 mi
10:35 PM19 °FClear.No wind69%30.41 "Hg10 mi
10:15 PM19 °FClear.3 mph69%30.41 "Hg10 mi
9:15 PM22 °FPassing clouds.5 mph66%30.41 "Hg10 mi
8:55 PM22 °FOvercast.8 mph66%30.40 "Hg10 mi
8:35 PM23 °FOvercast.7 mph67%30.40 "Hg10 mi
8:15 PM23 °FOvercast.7 mph68%30.40 "Hg10 mi
7:55 PM23 °FMostly cloudy.6 mph70%30.40 "Hg10 mi
7:35 PM23 °FLight snow. Mostly cloudy.3 mph81%30.40 "Hg7 mi
7:15 PM23 °FLight snow. Overcast.7 mph78%30.40 "Hg10 mi
6:55 PM24 °FLight snow. Mostly cloudy.7 mph75%30.40 "Hg5 mi
6:35 PM24 °FLight snow. Mostly cloudy.7 mph69%30.40 "Hg10 mi
6:15 PM24 °FMostly cloudy.7 mph64%30.40 "Hg10 mi
5:55 PM25 °FOvercast.6 mph65%30.40 "Hg10 mi
5:15 PM25 °FMostly cloudy.8 mph68%30.39 "Hg10 mi
4:55 PM25 °FOvercast.9 mph63%30.39 "Hg10 mi
4:35 PM25 °FOvercast.8 mph64%30.39 "Hg10 mi
4:15 PM25 °FOvercast.8 mph63%30.38 "Hg10 mi
3:55 PM25 °FOvercast.5 mph64%30.38 "Hg10 mi
3:15 PM26 °FOvercast.12 mph65%30.37 "Hg10 mi
2:55 PM26 °FOvercast.10 mph65%30.36 "Hg10 mi
2:35 PM26 °FOvercast.13 mph64%30.35 "Hg10 mi
2:15 PM27 °FOvercast.10 mph67%30.34 "Hg10 mi
1:55 PM27 °FOvercast.12 mph66%30.34 "Hg10 mi
1:35 PM27 °FOvercast.9 mph67%30.34 "Hg10 mi
1:15 PM27 °FOvercast.8 mph67%30.34 "Hg10 mi
12:55 PM27 °FOvercast.12 mph67%30.33 "Hg10 mi
12:35 PM28 °FOvercast.9 mph68%30.33 "Hg10 mi
12:15 PM28 °FOvercast.7 mph68%30.33 "Hg10 mi
11:55 AM28 °FOvercast.10 mph67%30.33 "Hg10 mi
11:35 AM28 °FOvercast.10 mph69%30.33 "Hg10 mi
11:15 AM28 °FOvercast.9 mph71%30.33 "Hg10 mi
10:55 AM28 °FOvercast.10 mph72%30.33 "Hg10 mi
10:15 AM28 °FOvercast.8 mph74%30.33 "Hg10 mi
9:55 AM28 °FOvercast.10 mph76%30.32 "Hg10 mi
9:35 AM27 °FOvercast.9 mph78%30.32 "Hg10 mi
9:15 AM26 °FOvercast.10 mph81%30.31 "Hg7 mi
8:55 AM25 °FOvercast.7 mph82%30.31 "Hg7 mi
8:35 AM25 °FOvercast.10 mph82%30.31 "Hg7 mi
8:15 AM25 °FMostly cloudy.8 mph83%30.30 "Hg7 mi
7:55 AM25 °FOvercast.8 mph83%30.29 "Hg7 mi
7:35 AM25 °FOvercast.8 mph83%30.28 "Hg7 mi
7:15 AM25 °FOvercast.6 mph82%30.27 "Hg7 mi
6:55 AM25 °FOvercast.6 mph81%30.27 "Hg10 mi
6:35 AM26 °FOvercast.7 mph79%30.27 "Hg10 mi
6:15 AM26 °FOvercast.6 mph79%30.27 "Hg10 mi
5:55 AM26 °FOvercast.7 mph77%30.26 "Hg10 mi
5:35 AM26 °FOvercast.8 mph75%30.25 "Hg10 mi
5:15 AM27 °FOvercast.7 mph76%30.24 "Hg10 mi
4:55 AM27 °FOvercast.8 mph76%30.24 "Hg10 mi
4:35 AM28 °FMostly cloudy.9 mph79%30.24 "Hg10 mi
4:15 AM28 °FMostly cloudy.8 mph82%30.23 "Hg7 mi
3:55 AM28 °FMostly cloudy.7 mph84%30.22 "Hg7 mi
3:15 AM28 °FLight snow. Overcast.10 mph88%30.22 "Hg5 mi
2:55 AM28 °FLight snow. Overcast.7 mph88%30.21 "Hg7 mi
2:15 AM28 °FLight snow. Overcast.6 mph86%30.20 "Hg5 mi
1:55 AM28 °FLight snow. Overcast.7 mph85%30.20 "Hg5 mi
1:35 AM29 °FLight snow. Overcast.7 mph85%30.19 "Hg5 mi
1:15 AM29 °FOvercast.7 mph85%30.19 "Hg7 mi
12:55 AM29 °FLight snow. Mostly cloudy.5 mph85%30.18 "Hg7 mi
12:35 AM29 °FOvercast.5 mph82%30.19 "Hg10 mi
12:15 AM28 °FOvercast.5 mph82%30.18 "Hg10 mi
Weather by CustomWeather, © 2014

See weather overviewHow to use our weather pages